This is the latest recevied weather packets stored in our database for station/object WA0LM. If no packets are shown the sender has not sent any weather packets the latest 10 day(s).
| Time | Temp. | Humidity | Pressure | Rain* | Wind** | Luminosity | Snow |
|---|---|---|---|---|---|---|---|
| 1777732708 | 10° C | 54% | 1015.4 hPa | 0 mm | - | 465 W/m² | - |
| 1777732405 | 10° C | 52% | 1015.5 hPa | 0 mm | - | 435 W/m² | - |
| 1777732103 | 10° C | 52% | 1015.7 hPa | 0 mm | - | 407 W/m² | - |
| 1777731799 | 9.44° C | 56% | 1015.7 hPa | 0 mm | - | 352 W/m² | - |
| 1777731496 | 9.44° C | 54% | 1015.7 hPa | 0 mm | - | 312 W/m² | - |
| 1777731195 | 8.89° C | 56% | 1015.8 hPa | 0 mm | - | 330 W/m² | - |
| 1777730892 | 8.89° C | 55% | 1015.9 hPa | 0 mm | - | 238 W/m² | - |
| 1777730589 | 8.33° C | 58% | 1015.8 hPa | 0 mm | - | 248 W/m² | - |
| 1777730285 | 8.33° C | 60% | 1015.9 hPa | 0 mm | - | 349 W/m² | - |
| 1777729982 | 7.78° C | 60% | 1015.9 hPa | 0 mm | - | 187 W/m² | - |
| 1777729678 | 7.78° C | 62% | 1015.9 hPa | 0 mm | - | 282 W/m² | - |
| 1777729375 | 7.22° C | 64% | 1016.1 hPa | 0 mm | - | 243 W/m² | - |
| 1777729072 | 7.22° C | 62% | 1016.1 hPa | 0 mm | - | 202 W/m² | - |
| 1777728768 | 6.67° C | 61% | 1016.1 hPa | 0 mm | - | 184 W/m² | - |
| 1777728465 | 6.67° C | 65% | 1016 hPa | 0 mm | - | 193 W/m² | - |
| 1777728162 | 6.11° C | 64% | 1016.1 hPa | 0 mm | - | 208 W/m² | - |
| 1777727859 | 6.11° C | 64% | 1016.3 hPa | 0 mm | - | 211 W/m² | - |
| 1777727557 | 5.56° C | 65% | 1016.3 hPa | 0 mm | - | 144 W/m² | - |
| 1777727254 | 5° C | 66% | 1016.3 hPa | 0 mm | - | 112 W/m² | - |
| 1777726951 | 5° C | 70% | 1016.5 hPa | 0 mm | - | 77 W/m² | - |
| 1777726647 | 4.44° C | 66% | 1016.4 hPa | 0 mm | - | 71 W/m² | - |
| 1777726345 | 4.44° C | 68% | 1016.4 hPa | 0 mm | - | 64 W/m² | - |
| 1777726042 | 3.89° C | 67% | 1016.5 hPa | 0 mm | - | 67 W/m² | - |
| 1777725738 | 3.89° C | 67% | 1016.5 hPa | 0 mm | - | 61 W/m² | - |
| 1777725437 | 3.89° C | 70% | 1016.5 hPa | 0 mm | - | 68 W/m² | - |
* Rain latest hour (hover to see other rain measurements)
** Current wind speed in m/s (hover to see current wind gust speed)